Location: San Antonio
(29.4240°N, 98.4930°W)
Time: 20:20:29
(UTC-06:00)

Transit 4A - Visible Passes

Search period start: 14 December 2025 00:00
Search period end: 24 December 2025 00:00
Orbit: 869 x 972 km, 66.8° (Epoch: 14 December)

Date Brightness Start Highest point End Pass type
(mag) Time Alt. Az. Time Alt. Az. Time Alt. Az.
14 Dec 7.8 05:02:20 76° SSW 05:02:20 76° SSW 05:08:11 10° SSE visible
14 Dec 7.9 18:10:10 10° S 18:15:48 55° ESE 18:21:27 10° NE visible
14 Dec 10.1 19:58:34 10° W 20:02:23 18° NW 20:06:00 11° NNW visible
15 Dec 10.7 03:28:22 11° E 03:28:22 11° E 03:28:37 10° ESE visible
15 Dec 8.4 05:11:55 45° SSW 05:11:55 45° SSW 05:16:39 10° S visible
15 Dec 7.8 18:18:41 10° SSW 18:24:30 87° ESE 18:30:20 10° NNE visible
15 Dec 10.4 20:09:45 10° WNW 20:11:29 11° NW 20:13:13 10° NNW visible
16 Dec 10.6 03:37:58 12° ESE 03:37:58 12° ESE 03:38:30 10° ESE visible
16 Dec 9.1 05:21:30 26° SW 05:21:30 26° SW 05:24:46 10° S visible
16 Dec 8.3 18:27:33 10° SW 18:33:15 59° WNW 18:39:00 10° NNE visible
17 Dec 10.5 03:47:31 12° SE 03:47:31 12° SE 03:47:56 10° SE visible
17 Dec 9.8 05:31:03 14° SW 05:31:03 14° SW 05:32:21 10° SSW visible
17 Dec 9.1 18:36:46 10° SW 18:42:06 37° WNW 18:47:28 10° N visible
18 Dec 9.7 18:46:23 10° WSW 18:51:01 24° WNW 18:55:41 10° N visible
19 Dec 10.2 18:56:35 10° W 19:00:03 16° NW 19:03:30 10° NNW visible
